Overview Statistics Trail Chart Weather Telemetry Raw packets
 

This is the latest recevied weather packets stored in our database for station/object OK1TBM-13. If no packets are shown the sender has not sent any weather packets the latest 10 day(s).

<< 1 2 3 4 5 >>
Time Temp. Humidity Pressure Rain* Wind** Luminosity Snow
1788688501 17.78° C 56% 1025.1 hPa 0 mm - 288 W/m² -
1788688201 17.22° C 56% 1025.4 hPa 0 mm - 206 W/m² -
1788687901 17.78° C 56% 1025.4 hPa 0 mm - 212 W/m² -
1788687601 17.78° C 54% 1025.4 hPa 0 mm - 284 W/m² -
1788687301 17.78° C 54% 1025.1 hPa 0 mm - 211 W/m² -
1788687033 18.33° C 52% 1025.1 hPa 0 mm - 754 W/m² -
1788686707 18.33° C 53% 1025.4 hPa 0 mm - 678 W/m² -
1788686401 18.33° C 55% 1025.4 hPa 0 mm - 627 W/m² -
1788685201 18.33° C 56% 1025.1 hPa 0 mm - 582 W/m² -
1788684901 17.78° C 57% 1025.1 hPa 0 mm - 581 W/m² -
1788684601 17.78° C 59% 1025.1 hPa 0 mm - 608 W/m² -
1788684301 17.22° C 60% 1025.1 hPa 0 mm - 246 W/m² -
1788684001 18.33° C 59% 1025.1 hPa 0 mm - 350 W/m² -
1788683701 17.78° C 61% 1025.1 hPa 0 mm - 597 W/m² -
1788683430 17.22° C 64% 1025.1 hPa 0 mm - 553 W/m² -
1788683102 17.22° C 64% 1025.1 hPa 0 mm - 179 W/m² -
1788681901 17.22° C 63% 1024.7 hPa 0 mm - 447 W/m² -
1788681601 16.67° C 65% 1024.7 hPa 0 mm - 291 W/m² -
1788681301 16.11° C 65% 1024.7 hPa 0 mm - 148 W/m² -
1788681002 16.67° C 66% 1024.4 hPa 0 mm - 216 W/m² -
1788680700 16.67° C 65% 1024.4 hPa 0 mm - 144 W/m² -
1788680400 17.22° C 65% 1024.4 hPa 0 mm - 416 W/m² -
1788679801 16.67° C 66% 1024.4 hPa 0 mm - 359 W/m² -
1788679501 16.67° C 68% 1024.4 hPa 0 mm - 338 W/m² -
1788679201 16.11° C 68% 1024.4 hPa 0 mm - 314 W/m² -

* Rain latest hour (hover to see other rain measurements)
** Current wind speed in m/s (hover to see current wind gust speed)